Time,TemperatureF,DewpointF,PressureIn,WindDirection,WindDirectionDegrees,WindSpeedMPH,WindSpeedGustMPH,Humidity,HourlyPrecipIn,Conditions,Clouds,dailyrainin,SoftwareType,DateUTC
2013-01-31 00:00:00,58.5,56.5,29.48,WSW,243,9.0,9.0,93,0.00,,,0.00,WeatherCatV1.11B39,2013-01-31 05:00:00,
2013-01-31 00:05:00,58.7,56.7,29.47,WNW,288,3.0,4.0,93,0.00,,,0.00,WeatherCatV1.11B39,2013-01-31 05:05:00,
2013-01-31 00:10:00,58.8,56.5,29.46,SSW,209,1.0,3.0,92,0.00,,,0.00,WeatherCatV1.11B39,2013-01-31 05:10:00,
2013-01-31 00:15:00,58.9,56.6,29.46,SSW,195,2.0,3.0,92,0.00,,,0.00,WeatherCatV1.11B39,2013-01-31 05:15:00,
2013-01-31 00:20:00,59.0,56.7,29.46,North,353,3.0,4.0,92,0.00,,,0.00,WeatherCatV1.11B39,2013-01-31 05:20:00,
2013-01-31 00:25:00,59.2,56.6,29.45,SW,224,4.0,4.0,91,0.00,,,0.00,WeatherCatV1.11B39,2013-01-31 05:25:00,
2013-01-31 00:30:00,59.4,56.8,29.45,NW,321,4.0,8.0,91,0.00,,,0.00,WeatherCatV1.11B39,2013-01-31 05:30:00,
2013-01-31 00:35:00,59.4,56.8,29.44,SSE,166,2.0,7.0,91,0.00,,,0.00,WeatherCatV1.11B39,2013-01-31 05:35:00,
2013-01-31 00:40:00,59.3,57.0,29.44,SSE,160,1.0,2.0,92,0.00,,,0.00,WeatherCatV1.11B39,2013-01-31 05:40:00,
2013-01-31 00:45:00,59.2,56.9,29.43,South,176,3.0,11.0,92,0.00,,,0.00,WeatherCatV1.11B39,2013-01-31 05:45:00,
2013-01-31 00:50:00,59.3,57.0,29.43,SW,229,2.0,4.0,92,0.00,,,0.00,WeatherCatV1.11B39,2013-01-31 05:50:00,
2013-01-31 00:55:00,59.2,57.2,29.42,SW,231,6.0,9.0,93,0.00,,,0.01,WeatherCatV1.11B39,2013-01-31 05:55:00,
2013-01-31 01:00:00,59.2,57.2,29.42,SSE,149,2.0,3.0,93,0.00,,,0.01,WeatherCatV1.11B39,2013-01-31 06:00:00,
2013-01-31 01:05:00,59.2,57.2,29.42,NNW,328,0.0,8.0,93,0.00,,,0.01,WeatherCatV1.11B39,2013-01-31 06:05:00,
2013-01-31 01:10:00,59.3,57.3,29.41,North,5,1.0,6.0,93,0.00,,,0.01,WeatherCatV1.11B39,2013-01-31 06:10:00,
2013-01-31 01:15:00,59.4,57.1,29.41,South,176,4.0,8.0,92,0.00,,,0.01,WeatherCatV1.11B39,2013-01-31 06:15:00,
2013-01-31 01:20:00,59.3,57.0,29.39,SSE,152,6.0,6.0,92,0.00,,,0.01,WeatherCatV1.11B39,2013-01-31 06:20:00,
2013-01-31 01:25:00,59.3,57.3,29.39,South,181,4.0,9.0,93,0.00,,,0.01,WeatherCatV1.11B39,2013-01-31 06:25:00,
2013-01-31 01:30:00,59.6,57.3,29.39,SW,226,1.0,8.0,92,0.00,,,0.01,WeatherCatV1.11B39,2013-01-31 06:30:00,
2013-01-31 01:35:00,59.6,57.3,29.39,SW,236,12.0,12.0,92,0.00,,,0.01,WeatherCatV1.11B39,2013-01-31 06:35:00,
2013-01-31 01:40:00,59.6,57.3,29.38,East,82,1.0,3.0,92,0.00,,,0.01,WeatherCatV1.11B39,2013-01-31 06:40:00,
2013-01-31 01:45:00,59.5,57.5,29.38,South,188,1.0,11.0,93,0.00,,,0.01,WeatherCatV1.11B39,2013-01-31 06:45:00,
2013-01-31 01:50:00,59.5,57.5,29.38,SSE,157,2.0,6.0,93,0.00,,,0.01,WeatherCatV1.11B39,2013-01-31 06:50:00,
2013-01-31 01:55:00,59.5,57.5,29.37,SSW,195,4.0,7.0,93,0.00,,,0.01,WeatherCatV1.11B39,2013-01-31 06:55:00,
2013-01-31 02:00:00,59.6,57.6,29.36,SW,236,2.0,10.0,93,0.00,,,0.01,WeatherCatV1.11B39,2013-01-31 07:00:00,
2013-01-31 02:05:00,59.5,57.5,29.35,South,171,7.0,8.0,93,0.00,,,0.01,WeatherCatV1.11B39,2013-01-31 07:05:00,
2013-01-31 02:10:00,59.4,57.4,29.35,SSW,195,5.0,13.0,93,0.00,,,0.01,WeatherCatV1.11B39,2013-01-31 07:10:00,
2013-01-31 02:15:00,59.5,57.5,29.35,SSE,158,2.0,11.0,93,0.00,,,0.01,WeatherCatV1.11B39,2013-01-31 07:15:00,
2013-01-31 02:20:00,59.5,57.5,29.34,WNW,282,4.0,10.0,93,0.00,,,0.01,WeatherCatV1.11B39,2013-01-31 07:20:00,
2013-01-31 02:25:00,59.4,57.4,29.33,South,186,3.0,11.0,93,0.00,,,0.02,WeatherCatV1.11B39,2013-01-31 07:25:00,
2013-01-31 02:30:00,59.4,57.4,29.33,West,269,3.0,14.0,93,0.00,,,0.02,WeatherCatV1.11B39,2013-01-31 07:30:00,
2013-01-31 02:35:00,59.3,57.3,29.33,West,267,4.0,11.0,93,0.00,,,0.02,WeatherCatV1.11B39,2013-01-31 07:35:00,
2013-01-31 02:40:00,59.2,57.2,29.32,SW,231,2.0,9.0,93,0.00,,,0.02,WeatherCatV1.11B39,2013-01-31 07:40:00,
2013-01-31 02:45:00,59.1,57.1,29.31,NNE,27,2.0,11.0,93,0.00,,,0.02,WeatherCatV1.11B39,2013-01-31 07:45:00,
2013-01-31 02:50:00,59.2,57.2,29.30,NNW,343,2.0,9.0,93,0.00,,,0.02,WeatherCatV1.11B39,2013-01-31 07:50:00,
2013-01-31 02:55:00,59.1,57.1,29.29,SSE,156,2.0,8.0,93,0.00,,,0.02,WeatherCatV1.11B39,2013-01-31 07:55:00,
2013-01-31 03:00:00,59.0,57.0,29.29,NNE,32,3.0,8.0,93,0.00,,,0.02,WeatherCatV1.11B39,2013-01-31 08:00:00,
2013-01-31 03:05:00,59.1,57.1,29.28,SSE,159,6.0,12.0,93,0.00,,,0.02,WeatherCatV1.11B39,2013-01-31 08:05:00,
2013-01-31 03:10:00,59.2,57.2,29.27,South,177,8.0,10.0,93,0.00,,,0.02,WeatherCatV1.11B39,2013-01-31 08:10:00,
2013-01-31 03:15:00,59.3,57.0,29.26,SSW,212,3.0,11.0,92,0.00,,,0.02,WeatherCatV1.11B39,2013-01-31 08:15:00,
2013-01-31 03:20:00,59.3,57.0,29.26,SW,214,3.0,10.0,92,0.00,,,0.02,WeatherCatV1.11B39,2013-01-31 08:20:00,
2013-01-31 03:25:00,59.3,57.0,29.25,South,176,7.0,10.0,92,0.00,,,0.03,WeatherCatV1.11B39,2013-01-31 08:25:00,
2013-01-31 03:30:00,59.4,57.1,29.24,East,86,6.0,10.0,92,0.00,,,0.03,WeatherCatV1.11B39,2013-01-31 08:30:00,
2013-01-31 03:35:00,59.3,57.0,29.24,SSE,155,4.0,5.0,92,0.00,,,0.03,WeatherCatV1.11B39,2013-01-31 08:35:00,
2013-01-31 03:40:00,59.4,57.1,29.23,SSW,199,7.0,22.0,92,0.00,,,0.03,WeatherCatV1.11B39,2013-01-31 08:40:00,
2013-01-31 03:45:00,59.4,57.1,29.23,NNW,341,3.0,12.0,92,0.00,,,0.03,WeatherCatV1.11B39,2013-01-31 08:45:00,
2013-01-31 03:50:00,59.4,57.1,29.22,SW,214,5.0,7.0,92,0.00,,,0.03,WeatherCatV1.11B39,2013-01-31 08:50:00,
2013-01-31 03:55:00,59.5,57.2,29.22,SSW,211,5.0,14.0,92,0.00,,,0.03,WeatherCatV1.11B39,2013-01-31 08:55:00,
2013-01-31 04:00:00,59.5,56.9,29.21,South,178,10.0,13.0,91,0.00,,,0.03,WeatherCatV1.11B39,2013-01-31 09:00:00,
2013-01-31 04:05:00,59.6,57.0,29.20,SSE,158,7.0,17.0,91,0.00,,,0.03,WeatherCatV1.11B39,2013-01-31 09:05:00,
2013-01-31 04:10:00,59.7,57.1,29.20,SSE,148,3.0,14.0,91,0.00,,,0.03,WeatherCatV1.11B39,2013-01-31 09:10:00,
2013-01-31 04:15:00,59.7,57.1,29.19,SSE,166,8.0,9.0,91,0.00,,,0.03,WeatherCatV1.11B39,2013-01-31 09:15:00,
2013-01-31 04:16:00,59.7,57.1,29.19,SW,214,4.0,10.0,91,0.00,,,0.03,WeatherCatV1.11B39,2013-01-31 09:16:00,
2013-01-31 04:21:00,59.7,57.4,29.18,SE,143,2.0,9.0,92,0.00,,,0.03,WeatherCatV1.11B39,2013-01-31 09:21:00,
2013-01-31 04:26:00,59.9,57.3,29.17,SE,145,7.0,16.0,91,0.00,,,0.03,WeatherCatV1.11B39,2013-01-31 09:26:00,
2013-01-31 04:31:00,60.0,57.4,29.18,SSW,198,4.0,7.0,91,0.00,,,0.03,WeatherCatV1.11B39,2013-01-31 09:31:00,
2013-01-31 04:36:00,60.1,57.5,29.16,SSE,163,10.0,13.0,91,0.00,,,0.03,WeatherCatV1.11B39,2013-01-31 09:36:00,
2013-01-31 04:41:00,60.3,57.7,29.17,SSE,157,6.0,10.0,91,0.00,,,0.03,WeatherCatV1.11B39,2013-01-31 09:41:00,
2013-01-31 04:46:00,60.4,57.8,29.17,WSW,243,11.0,18.0,91,0.16,,,0.05,WeatherCatV1.11B39,2013-01-31 09:46:00,
2013-01-31 04:51:00,60.4,57.8,29.17,South,190,6.0,9.0,91,0.10,,,0.05,WeatherCatV1.11B39,2013-01-31 09:51:00,
2013-01-31 04:56:00,60.4,57.8,29.16,SW,215,5.0,17.0,91,0.55,,,0.08,WeatherCatV1.11B39,2013-01-31 09:56:00,
2013-01-31 05:01:00,60.3,57.7,29.15,South,176,4.0,17.0,91,0.11,,,0.08,WeatherCatV1.11B39,2013-01-31 10:01:00,
2013-01-31 05:06:00,60.4,57.8,29.15,North,358,9.0,12.0,91,0.06,,,0.08,WeatherCatV1.11B39,2013-01-31 10:06:00,
2013-01-31 05:11:00,60.6,58.0,29.14,SSW,194,9.0,17.0,91,0.05,,,0.09,WeatherCatV1.11B39,2013-01-31 10:11:00,
2013-01-31 05:16:00,60.7,58.1,29.15,SSW,203,2.0,15.0,91,0.08,,,0.10,WeatherCatV1.11B39,2013-01-31 10:16:00,
2013-01-31 05:21:00,60.7,58.1,29.13,WSW,243,5.0,19.0,91,0.08,,,0.10,WeatherCatV1.11B39,2013-01-31 10:21:00,
2013-01-31 05:26:00,60.7,58.1,29.14,South,176,5.0,13.0,91,0.09,,,0.11,WeatherCatV1.11B39,2013-01-31 10:26:00,
2013-01-31 05:31:00,60.6,58.0,29.12,SSE,162,12.0,15.0,91,0.10,,,0.12,WeatherCatV1.11B39,2013-01-31 10:31:00,
2013-01-31 05:36:00,60.5,57.9,29.11,West,261,12.0,15.0,91,0.16,,,0.14,WeatherCatV1.11B39,2013-01-31 10:36:00,
2013-01-31 05:41:00,60.4,57.8,29.10,SSE,163,3.0,11.0,91,0.26,,,0.16,WeatherCatV1.11B39,2013-01-31 10:41:00,
2013-01-31 05:46:00,60.3,57.7,29.10,SE,136,6.0,20.0,91,0.17,,,0.17,WeatherCatV1.11B39,2013-01-31 10:46:00,
2013-01-31 05:51:00,60.3,57.7,29.08,SSE,153,5.0,32.0,91,0.12,,,0.18,WeatherCatV1.11B39,2013-01-31 10:51:00,
2013-01-31 05:56:00,60.1,57.8,29.07,ESE,103,10.0,11.0,92,0.15,,,0.19,WeatherCatV1.11B39,2013-01-31 10:56:00,
2013-01-31 06:01:00,60.2,57.6,29.08,South,179,7.0,23.0,91,0.12,,,0.20,WeatherCatV1.11B39,2013-01-31 11:01:00,
2013-01-31 06:06:00,60.3,57.7,29.06,SSE,158,2.0,20.0,91,0.25,,,0.22,WeatherCatV1.11B39,2013-01-31 11:06:00,
2013-01-31 06:11:00,60.1,57.8,29.04,SSW,204,6.0,15.0,92,0.40,,,0.25,WeatherCatV1.11B39,2013-01-31 11:11:00,
2013-01-31 06:16:00,60.1,57.8,29.05,West,270,4.0,19.0,92,0.17,,,0.27,WeatherCatV1.11B39,2013-01-31 11:16:00,
2013-01-31 06:21:00,60.2,57.9,29.05,SE,143,4.0,13.0,92,0.17,,,0.28,WeatherCatV1.11B39,2013-01-31 11:21:00,
2013-01-31 06:26:00,60.4,58.1,29.06,NNW,330,4.0,12.0,92,0.09,,,0.29,WeatherCatV1.11B39,2013-01-31 11:26:00,
2013-01-31 06:31:00,60.4,58.1,29.07,West,267,8.0,15.0,92,0.20,,,0.30,WeatherCatV1.11B39,2013-01-31 11:31:00,
2013-01-31 06:36:00,60.5,58.2,29.07,SSW,209,10.0,14.0,92,0.14,,,0.31,WeatherCatV1.11B39,2013-01-31 11:36:00,
2013-01-31 06:41:00,60.5,58.2,29.08,WNW,294,3.0,17.0,92,0.07,,,0.31,WeatherCatV1.11B39,2013-01-31 11:41:00,
2013-01-31 06:46:00,60.3,58.0,29.07,WSW,240,2.0,11.0,92,0.04,,,0.31,WeatherCatV1.11B39,2013-01-31 11:46:00,
2013-01-31 06:51:00,59.9,57.6,29.08,SW,215,10.0,10.0,92,0.00,,,0.31,WeatherCatV1.11B39,2013-01-31 11:51:00,
2013-01-31 06:56:00,59.8,57.5,29.08,WSW,248,2.0,4.0,92,0.00,,,0.32,WeatherCatV1.11B39,2013-01-31 11:56:00,
2013-01-31 07:01:00,60.0,57.7,29.08,SSE,165,4.0,11.0,92,0.00,,,0.32,WeatherCatV1.11B39,2013-01-31 12:01:00,
2013-01-31 07:06:00,60.1,57.8,29.08,SSE,151,2.0,8.0,92,0.05,,,0.33,WeatherCatV1.11B39,2013-01-31 12:06:00,
2013-01-31 07:11:00,60.2,57.9,29.07,East,81,1.0,4.0,92,0.05,,,0.33,WeatherCatV1.11B39,2013-01-31 12:11:00,
2013-01-31 07:16:00,60.3,57.7,29.08,SSE,158,2.0,9.0,91,0.05,,,0.33,WeatherCatV1.11B39,2013-01-31 12:16:00,
2013-01-31 07:21:00,60.1,57.5,29.07,ENE,75,3.0,10.0,91,0.04,,,0.33,WeatherCatV1.11B39,2013-01-31 12:21:00,
2013-01-31 07:26:00,60.0,57.4,29.06,ENE,60,1.0,6.0,91,0.00,,,0.33,WeatherCatV1.11B39,2013-01-31 12:26:00,
2013-01-31 07:31:00,59.8,56.9,29.05,SSE,168,1.0,3.0,90,0.00,,,0.33,WeatherCatV1.11B39,2013-01-31 12:31:00,
2013-01-31 07:36:00,59.5,56.6,29.05,SW,234,6.0,7.0,90,0.00,,,0.33,WeatherCatV1.11B39,2013-01-31 12:36:00,
2013-01-31 07:41:00,59.3,56.4,29.04,SSW,212,1.0,6.0,90,0.00,,,0.33,WeatherCatV1.11B39,2013-01-31 12:41:00,
2013-01-31 07:46:00,59.1,56.2,29.03,SSW,195,3.0,7.0,90,0.00,,,0.33,WeatherCatV1.11B39,2013-01-31 12:46:00,
2013-01-31 07:51:00,59.0,56.1,29.04,West,276,4.0,5.0,90,0.00,,,0.33,WeatherCatV1.11B39,2013-01-31 12:51:00,
2013-01-31 07:56:00,59.0,56.1,29.02,WSW,239,1.0,6.0,90,0.00,,,0.33,WeatherCatV1.11B39,2013-01-31 12:56:00,
2013-01-31 08:01:00,58.8,55.9,29.01,West,264,3.0,10.0,90,0.00,,,0.33,WeatherCatV1.11B39,2013-01-31 13:01:00,
2013-01-31 08:06:00,58.9,55.7,29.01,NNE,23,1.0,11.0,89,0.00,,,0.34,WeatherCatV1.11B39,2013-01-31 13:06:00,
2013-01-31 08:11:00,58.8,55.6,29.02,NNW,344,2.0,8.0,89,0.00,,,0.34,WeatherCatV1.11B39,2013-01-31 13:11:00,
2013-01-31 08:16:00,58.6,55.4,29.01,SW,214,2.0,3.0,89,0.00,,,0.34,WeatherCatV1.11B39,2013-01-31 13:16:00,
2013-01-31 08:21:00,58.3,55.4,29.02,SW,218,3.0,11.0,90,0.00,,,0.34,WeatherCatV1.11B39,2013-01-31 13:21:00,
2013-01-31 08:26:00,58.2,55.3,29.02,WSW,238,5.0,11.0,90,0.00,,,0.34,WeatherCatV1.11B39,2013-01-31 13:26:00,
2013-01-31 08:31:00,57.9,55.0,29.01,SSW,195,1.0,8.0,90,0.00,,,0.34,WeatherCatV1.11B39,2013-01-31 13:31:00,
2013-01-31 08:36:00,57.8,54.9,29.00,SE,143,6.0,8.0,90,0.00,,,0.34,WeatherCatV1.11B39,2013-01-31 13:36:00,
2013-01-31 08:41:00,57.7,54.8,29.00,SW,233,4.0,6.0,90,0.00,,,0.34,WeatherCatV1.11B39,2013-01-31 13:41:00,
2013-01-31 08:46:00,57.6,54.7,29.00,South,187,2.0,7.0,90,0.00,,,0.34,WeatherCatV1.11B39,2013-01-31 13:46:00,
2013-01-31 08:51:00,57.5,54.6,29.00,SW,228,5.0,7.0,90,0.00,,,0.34,WeatherCatV1.11B39,2013-01-31 13:51:00,
2013-01-31 08:56:00,57.5,54.6,28.99,WNW,293,1.0,7.0,90,0.00,,,0.34,WeatherCatV1.11B39,2013-01-31 13:56:00,
2013-01-31 09:01:00,57.4,54.2,29.00,ENE,77,1.0,7.0,89,0.00,,,0.34,WeatherCatV1.11B39,2013-01-31 14:01:00,
2013-01-31 09:06:00,57.4,54.2,29.00,SW,222,1.0,6.0,89,0.00,,,0.34,WeatherCatV1.11B39,2013-01-31 14:06:00,
2013-01-31 09:11:00,57.4,53.9,29.00,South,187,5.0,6.0,88,0.00,,,0.34,WeatherCatV1.11B39,2013-01-31 14:11:00,
2013-01-31 09:16:00,57.4,53.6,29.00,SSW,209,3.0,8.0,87,0.00,,,0.34,WeatherCatV1.11B39,2013-01-31 14:16:00,
2013-01-31 09:21:00,57.4,53.6,28.99,SSW,207,8.0,12.0,87,0.00,,,0.34,WeatherCatV1.11B39,2013-01-31 14:21:00,
2013-01-31 09:26:00,57.6,53.4,29.00,South,184,5.0,9.0,86,0.00,,,0.34,WeatherCatV1.11B39,2013-01-31 14:26:00,
2013-01-31 09:31:00,57.5,53.3,29.00,East,88,0.0,8.0,86,0.00,,,0.34,WeatherCatV1.11B39,2013-01-31 14:31:00,
2013-01-31 09:36:00,57.4,52.9,29.00,SW,228,3.0,15.0,85,0.00,,,0.34,WeatherCatV1.11B39,2013-01-31 14:36:00,
2013-01-31 09:41:00,57.2,52.1,29.03,NNW,333,8.0,11.0,83,0.00,,,0.34,WeatherCatV1.11B39,2013-01-31 14:41:00,
2013-01-31 09:46:00,53.4,45.3,29.06,SW,234,7.0,16.0,74,0.37,,,0.37,WeatherCatV1.11B39,2013-01-31 14:46:00,
2013-01-31 09:51:00,49.6,44.0,29.08,WNW,290,3.0,12.0,81,0.18,,,0.39,WeatherCatV1.11B39,2013-01-31 14:51:00,
2013-01-31 09:56:00,47.3,42.4,29.08,SW,233,7.0,9.0,83,0.09,,,0.39,WeatherCatV1.11B39,2013-01-31 14:56:00,
2013-01-31 10:01:00,46.2,41.9,29.09,SSE,166,0.0,9.0,85,0.06,,,0.40,WeatherCatV1.11B39,2013-01-31 15:01:00,
2013-01-31 10:06:00,45.5,41.3,29.09,WNW,295,3.0,11.0,85,0.06,,,0.40,WeatherCatV1.11B39,2013-01-31 15:06:00,
2013-01-31 10:11:00,44.9,41.0,29.10,SSE,156,5.0,7.0,86,0.06,,,0.40,WeatherCatV1.11B39,2013-01-31 15:11:00,
2013-01-31 10:16:00,44.5,40.6,29.10,SSW,210,1.0,13.0,86,0.04,,,0.40,WeatherCatV1.11B39,2013-01-31 15:16:00,
2013-01-31 10:21:00,44.1,40.2,29.10,West,259,3.0,8.0,86,0.04,,,0.41,WeatherCatV1.11B39,2013-01-31 15:21:00,
2013-01-31 10:26:00,44.0,40.4,29.09,NW,309,2.0,12.0,87,0.04,,,0.41,WeatherCatV1.11B39,2013-01-31 15:26:00,
2013-01-31 10:31:00,44.2,40.3,29.11,SSW,200,0.0,11.0,86,0.04,,,0.41,WeatherCatV1.11B39,2013-01-31 15:31:00,
2013-01-31 10:36:00,44.5,40.3,29.12,SSW,207,2.0,9.0,85,0.00,,,0.41,WeatherCatV1.11B39,2013-01-31 15:36:00,
2013-01-31 10:41:00,44.8,40.9,29.12,SSW,197,4.0,7.0,86,0.00,,,0.41,WeatherCatV1.11B39,2013-01-31 15:41:00,
2013-01-31 10:46:00,45.1,40.9,29.14,ENE,63,1.0,5.0,85,0.00,,,0.41,WeatherCatV1.11B39,2013-01-31 15:46:00,
2013-01-31 10:51:00,45.4,39.9,29.14,SW,214,4.0,6.0,81,0.00,,,0.41,WeatherCatV1.11B39,2013-01-31 15:51:00,
2013-01-31 10:56:00,45.4,39.6,29.15,North,354,3.0,14.0,80,0.00,,,0.41,WeatherCatV1.11B39,2013-01-31 15:56:00,
2013-01-31 11:01:00,45.6,39.8,29.15,SSW,197,2.0,4.0,80,0.00,,,0.41,WeatherCatV1.11B39,2013-01-31 16:01:00,
2013-01-31 11:06:00,45.9,39.8,29.16,SW,231,7.0,11.0,79,0.00,,,0.41,WeatherCatV1.11B39,2013-01-31 16:06:00,
2013-01-31 11:11:00,46.1,40.0,29.16,South,191,3.0,4.0,79,0.00,,,0.41,WeatherCatV1.11B39,2013-01-31 16:11:00,
2013-01-31 11:16:00,46.3,39.5,29.16,SSW,210,3.0,6.0,77,0.00,,,0.41,WeatherCatV1.11B39,2013-01-31 16:16:00,
2013-01-31 11:21:00,46.4,38.9,29.17,South,190,5.0,5.0,75,0.00,,,0.41,WeatherCatV1.11B39,2013-01-31 16:21:00,
2013-01-31 11:26:00,46.3,37.8,29.17,South,172,1.0,9.0,72,0.00,,,0.41,WeatherCatV1.11B39,2013-01-31 16:26:00,
2013-01-31 11:31:00,46.4,37.9,29.17,NW,326,5.0,8.0,72,0.00,,,0.41,WeatherCatV1.11B39,2013-01-31 16:31:00,
2013-01-31 11:36:00,46.7,37.1,29.17,WSW,253,1.0,13.0,69,0.00,,,0.41,WeatherCatV1.11B39,2013-01-31 16:36:00,
2013-01-31 11:41:00,46.9,37.3,29.17,SSW,198,3.0,14.0,69,0.00,,,0.41,WeatherCatV1.11B39,2013-01-31 16:41:00,
2013-01-31 11:46:00,47.1,37.5,29.17,ESE,102,3.0,4.0,69,0.00,,,0.41,WeatherCatV1.11B39,2013-01-31 16:46:00,
2013-01-31 11:51:00,47.2,36.8,29.18,SW,236,2.0,5.0,67,0.00,,,0.41,WeatherCatV1.11B39,2013-01-31 16:51:00,
2013-01-31 11:56:00,46.9,36.9,29.18,NE,48,2.0,10.0,68,0.00,,,0.41,WeatherCatV1.11B39,2013-01-31 16:56:00,
2013-01-31 12:01:00,46.6,35.9,29.19,SW,229,6.0,6.0,66,0.00,,,0.41,WeatherCatV1.11B39,2013-01-31 17:01:00,
2013-01-31 12:06:00,46.4,36.4,29.19,SW,228,4.0,4.0,68,0.00,,,0.41,WeatherCatV1.11B39,2013-01-31 17:06:00,
2013-01-31 12:11:00,46.2,36.2,29.19,SW,231,3.0,5.0,68,0.00,,,0.41,WeatherCatV1.11B39,2013-01-31 17:11:00,
2013-01-31 12:16:00,46.1,35.0,29.19,NNE,20,4.0,16.0,65,0.00,,,0.41,WeatherCatV1.11B39,2013-01-31 17:16:00,
2013-01-31 12:21:00,46.3,35.2,29.19,SW,224,6.0,10.0,65,0.00,,,0.41,WeatherCatV1.11B39,2013-01-31 17:21:00,
2013-01-31 12:26:00,46.7,34.0,29.19,NNE,13,5.0,11.0,61,0.00,,,0.41,WeatherCatV1.11B39,2013-01-31 17:26:00,
2013-01-31 12:31:00,46.9,32.9,29.19,NW,306,2.0,11.0,58,0.00,,,0.41,WeatherCatV1.11B39,2013-01-31 17:31:00,
2013-01-31 12:36:00,46.9,32.9,29.19,SSW,204,3.0,7.0,58,0.00,,,0.41,WeatherCatV1.11B39,2013-01-31 17:36:00,
2013-01-31 12:41:00,47.0,31.7,29.20,NE,37,6.0,13.0,55,0.00,,,0.41,WeatherCatV1.11B39,2013-01-31 17:41:00,
2013-01-31 12:46:00,46.8,31.0,29.20,NNW,335,2.0,6.0,54,0.00,,,0.41,WeatherCatV1.11B39,2013-01-31 17:46:00,
2013-01-31 12:51:00,46.7,30.9,29.21,SW,219,8.0,8.0,54,0.00,,,0.41,WeatherCatV1.11B39,2013-01-31 17:51:00,
2013-01-31 12:56:00,46.8,31.0,29.21,SSW,210,7.0,8.0,54,0.00,,,0.41,WeatherCatV1.11B39,2013-01-31 17:56:00,
2013-01-31 13:01:00,46.7,30.9,29.21,WSW,245,6.0,7.0,54,0.00,,,0.41,WeatherCatV1.11B39,2013-01-31 18:01:00,
2013-01-31 13:06:00,46.6,30.4,29.21,South,188,3.0,4.0,53,0.00,,,0.41,WeatherCatV1.11B39,2013-01-31 18:06:00,
2013-01-31 13:11:00,46.8,30.6,29.22,NNW,347,3.0,4.0,53,0.00,,,0.41,WeatherCatV1.11B39,2013-01-31 18:11:00,
2013-01-31 13:16:00,46.9,30.7,29.22,SSW,207,3.0,6.0,53,0.00,,,0.41,WeatherCatV1.11B39,2013-01-31 18:16:00,
2013-01-31 13:21:00,47.1,30.4,29.22,SSW,204,3.0,12.0,52,0.00,,,0.41,WeatherCatV1.11B39,2013-01-31 18:21:00,
2013-01-31 13:26:00,47.5,28.8,29.22,NW,305,4.0,6.0,48,0.00,,,0.41,WeatherCatV1.11B39,2013-01-31 18:26:00,
2013-01-31 13:31:00,47.4,27.1,29.23,ESE,104,5.0,11.0,45,0.00,,,0.41,WeatherCatV1.11B39,2013-01-31 18:31:00,
2013-01-31 13:36:00,46.8,26.0,29.23,NE,48,7.0,12.0,44,0.00,,,0.41,WeatherCatV1.11B39,2013-01-31 18:36:00,
2013-01-31 13:41:00,46.5,25.8,29.24,NW,326,2.0,8.0,44,0.00,,,0.41,WeatherCatV1.11B39,2013-01-31 18:41:00,
2013-01-31 13:46:00,46.5,26.8,29.24,ENE,77,4.0,12.0,46,0.00,,,0.41,WeatherCatV1.11B39,2013-01-31 18:46:00,
2013-01-31 13:51:00,46.6,26.4,29.25,SSW,207,2.0,15.0,45,0.00,,,0.41,WeatherCatV1.11B39,2013-01-31 18:51:00,
2013-01-31 13:56:00,46.7,26.5,29.25,NNE,25,6.0,6.0,45,0.00,,,0.41,WeatherCatV1.11B39,2013-01-31 18:56:00,
2013-01-31 14:01:00,47.0,27.3,29.25,North,9,1.0,5.0,46,0.00,,,0.41,WeatherCatV1.11B39,2013-01-31 19:01:00,
2013-01-31 14:06:00,47.2,25.3,29.25,NE,48,2.0,9.0,42,0.00,,,0.41,WeatherCatV1.11B39,2013-01-31 19:06:00,
2013-01-31 14:11:00,46.1,24.3,29.27,West,276,4.0,9.0,42,0.00,,,0.41,WeatherCatV1.11B39,2013-01-31 19:11:00,
2013-01-31 14:17:00,45.0,23.9,29.28,WSW,242,6.0,9.0,43,0.00,,,0.41,WeatherCatV1.11B39,2013-01-31 19:17:00,
2013-01-31 14:22:00,45.1,24.0,29.28,SSW,210,2.0,7.0,43,0.00,,,0.41,WeatherCatV1.11B39,2013-01-31 19:22:00,
2013-01-31 14:27:00,45.5,23.8,29.28,SSW,201,5.0,8.0,42,0.00,,,0.41,WeatherCatV1.11B39,2013-01-31 19:27:00,
2013-01-31 14:32:00,45.6,23.3,29.28,SSW,205,3.0,13.0,41,0.00,,,0.41,WeatherCatV1.11B39,2013-01-31 19:32:00,
2013-01-31 14:37:00,45.7,22.8,29.28,SSW,194,4.0,10.0,40,0.00,,,0.41,WeatherCatV1.11B39,2013-01-31 19:37:00,
2013-01-31 14:42:00,45.9,23.0,29.29,SW,222,6.0,13.0,40,0.00,,,0.41,WeatherCatV1.11B39,2013-01-31 19:42:00,
2013-01-31 14:47:00,45.7,23.4,29.29,NNW,344,1.0,11.0,41,0.00,,,0.41,WeatherCatV1.11B39,2013-01-31 19:47:00,
2013-01-31 14:52:00,45.4,23.7,29.30,SSE,160,2.0,7.0,42,0.00,,,0.41,WeatherCatV1.11B39,2013-01-31 19:52:00,
2013-01-31 14:57:00,44.8,22.6,29.31,West,262,9.0,12.0,41,0.00,,,0.41,WeatherCatV1.11B39,2013-01-31 19:57:00,
2013-01-31 15:02:00,44.3,22.1,29.31,SW,224,5.0,10.0,41,0.00,,,0.41,WeatherCatV1.11B39,2013-01-31 20:02:00,
2013-01-31 15:07:00,43.9,21.7,29.32,SSW,211,2.0,11.0,41,0.00,,,0.41,WeatherCatV1.11B39,2013-01-31 20:07:00,
2013-01-31 15:12:00,43.8,22.2,29.32,SSE,163,3.0,11.0,42,0.00,,,0.41,WeatherCatV1.11B39,2013-01-31 20:12:00,
2013-01-31 15:17:00,44.2,22.6,29.33,SSW,204,4.0,10.0,42,0.00,,,0.41,WeatherCatV1.11B39,2013-01-31 20:17:00,
2013-01-31 15:22:00,44.5,22.3,29.33,SE,134,2.0,7.0,41,0.00,,,0.41,WeatherCatV1.11B39,2013-01-31 20:22:00,
2013-01-31 15:27:00,44.8,22.6,29.33,South,191,5.0,6.0,41,0.00,,,0.41,WeatherCatV1.11B39,2013-01-31 20:27:00,
2013-01-31 15:32:00,44.7,20.7,29.33,NNE,30,2.0,11.0,38,0.00,,,0.41,WeatherCatV1.11B39,2013-01-31 20:32:00,
2013-01-31 15:37:00,44.1,20.7,29.34,NNW,333,3.0,7.0,39,0.00,,,0.41,WeatherCatV1.11B39,2013-01-31 20:37:00,
2013-01-31 15:42:00,43.9,21.2,29.34,SW,228,5.0,7.0,40,0.00,,,0.41,WeatherCatV1.11B39,2013-01-31 20:42:00,
2013-01-31 15:47:00,43.9,21.2,29.34,SW,219,0.0,5.0,40,0.00,,,0.41,WeatherCatV1.11B39,2013-01-31 20:47:00,
2013-01-31 15:52:00,44.0,21.2,29.34,South,184,0.0,5.0,40,0.00,,,0.41,WeatherCatV1.11B39,2013-01-31 20:52:00,
2013-01-31 15:57:00,43.9,21.2,29.35,East,92,0.0,1.0,40,0.00,,,0.41,WeatherCatV1.11B39,2013-01-31 20:57:00,
2013-01-31 16:02:00,43.4,21.3,29.35,NW,309,2.0,5.0,41,0.00,,,0.41,WeatherCatV1.11B39,2013-01-31 21:02:00,
2013-01-31 16:07:00,42.8,21.3,29.36,NNE,20,3.0,11.0,42,0.00,,,0.41,WeatherCatV1.11B39,2013-01-31 21:07:00,
2013-01-31 16:12:00,42.2,21.3,29.36,SW,232,0.0,5.0,43,0.00,,,0.41,WeatherCatV1.11B39,2013-01-31 21:12:00,
2013-01-31 16:17:00,41.9,21.1,29.36,ENE,77,2.0,7.0,43,0.00,,,0.41,WeatherCatV1.11B39,2013-01-31 21:17:00,
2013-01-31 16:22:00,41.6,20.8,29.36,WSW,245,1.0,2.0,43,0.00,,,0.41,WeatherCatV1.11B39,2013-01-31 21:22:00,
2013-01-31 16:27:00,41.4,20.6,29.37,SW,224,2.0,3.0,43,0.00,,,0.41,WeatherCatV1.11B39,2013-01-31 21:27:00,
2013-01-31 16:32:00,41.2,20.4,29.37,North,11,3.0,6.0,43,0.00,,,0.41,WeatherCatV1.11B39,2013-01-31 21:32:00,
2013-01-31 16:37:00,41.1,20.3,29.37,North,351,3.0,5.0,43,0.00,,,0.41,WeatherCatV1.11B39,2013-01-31 21:37:00,
2013-01-31 16:42:00,41.0,20.8,29.37,SW,215,3.0,5.0,44,0.00,,,0.41,WeatherCatV1.11B39,2013-01-31 21:42:00,
2013-01-31 16:47:00,40.8,20.1,29.38,NNE,32,1.0,7.0,43,0.00,,,0.41,WeatherCatV1.11B39,2013-01-31 21:47:00,
2013-01-31 16:52:00,40.6,20.4,29.38,ESE,105,1.0,3.0,44,0.00,,,0.41,WeatherCatV1.11B39,2013-01-31 21:52:00,
2013-01-31 16:57:00,40.5,19.8,29.38,NW,311,7.0,8.0,43,0.00,,,0.41,WeatherCatV1.11B39,2013-01-31 21:57:00,
2013-01-31 17:02:00,40.5,19.8,29.39,WNW,302,1.0,5.0,43,0.00,,,0.41,WeatherCatV1.11B39,2013-01-31 22:02:00,
2013-01-31 17:07:00,40.4,19.7,29.39,WSW,250,0.0,3.0,43,0.00,,,0.41,WeatherCatV1.11B39,2013-01-31 22:07:00,
2013-01-31 17:12:00,40.2,20.0,29.39,SW,236,3.0,9.0,44,0.00,,,0.41,WeatherCatV1.11B39,2013-01-31 22:12:00,
2013-01-31 17:17:00,40.1,20.0,29.40,NNE,29,0.0,5.0,44,0.00,,,0.41,WeatherCatV1.11B39,2013-01-31 22:17:00,
2013-01-31 17:22:00,40.0,19.9,29.40,WNW,297,1.0,4.0,44,0.00,,,0.41,WeatherCatV1.11B39,2013-01-31 22:22:00,
2013-01-31 17:27:00,39.7,20.1,29.41,NW,326,0.0,4.0,45,0.00,,,0.41,WeatherCatV1.11B39,2013-01-31 22:27:00,
2013-01-31 17:32:00,39.4,19.8,29.41,North,9,5.0,12.0,45,0.00,,,0.41,WeatherCatV1.11B39,2013-01-31 22:32:00,
2013-01-31 17:37:00,39.4,18.8,29.41,SSW,210,2.0,9.0,43,0.00,,,0.41,WeatherCatV1.11B39,2013-01-31 22:37:00,
2013-01-31 17:42:00,39.4,18.8,29.42,WNW,300,2.0,7.0,43,0.00,,,0.41,WeatherCatV1.11B39,2013-01-31 22:42:00,
2013-01-31 17:47:00,39.3,18.7,29.42,SSW,205,4.0,6.0,43,0.00,,,0.41,WeatherCatV1.11B39,2013-01-31 22:47:00,
2013-01-31 17:52:00,39.1,19.0,29.43,NNW,347,3.0,4.0,44,0.00,,,0.41,WeatherCatV1.11B39,2013-01-31 22:52:00,
2013-01-31 17:57:00,38.8,18.8,29.43,WNW,298,2.0,5.0,44,0.00,,,0.41,WeatherCatV1.11B39,2013-01-31 22:57:00,
2013-01-31 18:02:00,38.6,19.1,29.44,SW,231,1.0,4.0,45,0.00,,,0.41,WeatherCatV1.11B39,2013-01-31 23:02:00,
2013-01-31 18:07:00,38.4,18.9,29.44,NNE,19,1.0,5.0,45,0.00,,,0.41,WeatherCatV1.11B39,2013-01-31 23:07:00,
2013-01-31 18:12:00,38.1,19.2,29.44,NNW,345,0.0,2.0,46,0.00,,,0.41,WeatherCatV1.11B39,2013-01-31 23:12:00,
2013-01-31 18:17:00,37.9,19.0,29.44,SSW,212,0.0,3.0,46,0.00,,,0.41,WeatherCatV1.11B39,2013-01-31 23:17:00,
2013-01-31 18:22:00,37.7,18.8,29.45,SSW,212,2.0,6.0,46,0.00,,,0.41,WeatherCatV1.11B39,2013-01-31 23:22:00,
2013-01-31 18:27:00,37.7,19.3,29.45,SW,224,0.0,3.0,47,0.00,,,0.41,WeatherCatV1.11B39,2013-01-31 23:27:00,
2013-01-31 18:32:00,37.5,19.1,29.46,SSW,212,3.0,4.0,47,0.00,,,0.41,WeatherCatV1.11B39,2013-01-31 23:32:00,
2013-01-31 18:37:00,37.4,19.5,29.46,NNW,338,1.0,3.0,48,0.00,,,0.41,WeatherCatV1.11B39,2013-01-31 23:37:00,
2013-01-31 18:42:00,37.2,19.3,29.47,SW,224,1.0,8.0,48,0.00,,,0.41,WeatherCatV1.11B39,2013-01-31 23:42:00,
2013-01-31 18:47:00,37.2,19.3,29.47,SW,224,1.0,7.0,48,0.00,,,0.41,WeatherCatV1.11B39,2013-01-31 23:47:00,
2013-01-31 18:52:00,37.2,18.8,29.48,SSW,198,1.0,4.0,47,0.00,,,0.41,WeatherCatV1.11B39,2013-01-31 23:52:00,
2013-01-31 18:57:00,37.1,18.8,29.48,SW,224,2.0,7.0,47,0.00,,,0.41,WeatherCatV1.11B39,2013-01-31 23:57:00,
2013-01-31 19:02:00,36.9,18.6,29.48,North,11,3.0,6.0,47,0.00,,,0.41,WeatherCatV1.11B39,2013-02-01 00:02:00,
2013-01-31 19:07:00,36.9,18.6,29.48,SW,218,1.0,5.0,47,0.00,,,0.41,WeatherCatV1.11B39,2013-02-01 00:07:00,
2013-01-31 19:12:00,36.7,18.9,29.48,North,351,3.0,4.0,48,0.00,,,0.41,WeatherCatV1.11B39,2013-02-01 00:12:00,
2013-01-31 19:17:00,36.5,18.7,29.48,WNW,283,0.0,2.0,48,0.00,,,0.41,WeatherCatV1.11B39,2013-02-01 00:17:00,
2013-01-31 19:22:00,36.3,18.5,29.49,SSE,156,0.0,3.0,48,0.00,,,0.41,WeatherCatV1.11B39,2013-02-01 00:22:00,
2013-01-31 19:27:00,36.2,17.9,29.50,South,190,2.0,7.0,47,0.00,,,0.41,WeatherCatV1.11B39,2013-02-01 00:27:00,
2013-01-31 19:32:00,36.1,17.3,29.50,ESE,114,1.0,7.0,46,0.00,,,0.41,WeatherCatV1.11B39,2013-02-01 00:32:00,
2013-01-31 19:37:00,36.0,17.3,29.50,SSW,208,2.0,4.0,46,0.00,,,0.41,WeatherCatV1.11B39,2013-02-01 00:37:00,
2013-01-31 19:42:00,35.9,16.1,29.50,NE,51,1.0,7.0,44,0.00,,,0.41,WeatherCatV1.11B39,2013-02-01 00:42:00,
2013-01-31 19:47:00,35.9,16.1,29.50,ESE,110,1.0,6.0,44,0.00,,,0.41,WeatherCatV1.11B39,2013-02-01 00:47:00,
2013-01-31 19:52:00,35.9,16.1,29.50,NNW,348,7.0,7.0,44,0.00,,,0.41,WeatherCatV1.11B39,2013-02-01 00:52:00,
2013-01-31 19:57:00,35.9,16.1,29.51,North,356,1.0,10.0,44,0.00,,,0.41,WeatherCatV1.11B39,2013-02-01 00:57:00,
2013-01-31 20:02:00,35.9,16.1,29.51,SSW,198,3.0,11.0,44,0.00,,,0.41,WeatherCatV1.11B39,2013-02-01 01:02:00,
2013-01-31 20:07:00,35.8,16.0,29.52,SW,222,3.0,9.0,44,0.00,,,0.41,WeatherCatV1.11B39,2013-02-01 01:07:00,
2013-01-31 20:12:00,35.6,16.9,29.52,SSW,210,0.0,5.0,46,0.00,,,0.41,WeatherCatV1.11B39,2013-02-01 01:12:00,
2013-01-31 20:17:00,35.4,16.7,29.53,NNW,345,1.0,5.0,46,0.00,,,0.41,WeatherCatV1.11B39,2013-02-01 01:17:00,
2013-01-31 20:22:00,35.1,17.9,29.53,West,262,2.0,6.0,49,0.00,,,0.41,WeatherCatV1.11B39,2013-02-01 01:22:00,
2013-01-31 20:27:00,34.8,18.1,29.53,East,90,3.0,7.0,50,0.00,,,0.41,WeatherCatV1.11B39,2013-02-01 01:27:00,
2013-01-31 20:32:00,34.6,18.4,29.53,SSE,148,0.0,2.0,51,0.00,,,0.41,WeatherCatV1.11B39,2013-02-01 01:32:00,
2013-01-31 20:37:00,34.4,18.2,29.53,SSW,194,0.0,3.0,51,0.00,,,0.41,WeatherCatV1.11B39,2013-02-01 01:37:00,
2013-01-31 20:42:00,34.2,18.0,29.54,SE,143,1.0,5.0,51,0.00,,,0.41,WeatherCatV1.11B39,2013-02-01 01:42:00,
2013-01-31 20:47:00,34.1,17.9,29.54,North,359,1.0,2.0,51,0.00,,,0.41,WeatherCatV1.11B39,2013-02-01 01:47:00,
2013-01-31 20:52:00,33.9,18.6,29.54,North,354,1.0,2.0,53,0.00,,,0.41,WeatherCatV1.11B39,2013-02-01 01:52:00,
2013-01-31 20:57:00,33.6,18.3,29.54,NE,35,1.0,3.0,53,0.00,,,0.41,WeatherCatV1.11B39,2013-02-01 01:57:00,
2013-01-31 21:02:00,33.4,18.1,29.55,SSW,193,1.0,4.0,53,0.00,,,0.41,WeatherCatV1.11B39,2013-02-01 02:02:00,
2013-01-31 21:07:00,33.3,18.0,29.55,NNW,346,0.0,5.0,53,0.00,,,0.41,WeatherCatV1.11B39,2013-02-01 02:07:00,
2013-01-31 21:12:00,33.3,18.5,29.55,NNW,340,0.0,2.0,54,0.00,,,0.41,WeatherCatV1.11B39,2013-02-01 02:12:00,
2013-01-31 21:17:00,33.3,18.0,29.55,SW,226,2.0,3.0,53,0.00,,,0.41,WeatherCatV1.11B39,2013-02-01 02:17:00,
2013-01-31 21:22:00,33.3,17.6,29.55,ESE,113,4.0,4.0,52,0.00,,,0.41,WeatherCatV1.11B39,2013-02-01 02:22:00,
2013-01-31 21:27:00,33.5,17.3,29.55,NNW,329,2.0,3.0,51,0.00,,,0.41,WeatherCatV1.11B39,2013-02-01 02:27:00,
2013-01-31 21:32:00,33.6,16.5,29.56,NW,310,3.0,5.0,49,0.00,,,0.41,WeatherCatV1.11B39,2013-02-01 02:32:00,
2013-01-31 21:37:00,33.7,16.1,29.55,North,9,5.0,9.0,48,0.00,,,0.41,WeatherCatV1.11B39,2013-02-01 02:37:00,
2013-01-31 21:42:00,33.7,16.1,29.56,NNE,30,2.0,3.0,48,0.00,,,0.41,WeatherCatV1.11B39,2013-02-01 02:42:00,
2013-01-31 21:47:00,33.7,16.1,29.56,WNW,284,1.0,4.0,48,0.00,,,0.41,WeatherCatV1.11B39,2013-02-01 02:47:00,
2013-01-31 21:52:00,33.6,16.0,29.57,WSW,246,10.0,10.0,48,0.00,,,0.41,WeatherCatV1.11B39,2013-02-01 02:52:00,
2013-01-31 21:57:00,33.5,16.4,29.57,North,11,5.0,6.0,49,0.00,,,0.41,WeatherCatV1.11B39,2013-02-01 02:57:00,
2013-01-31 22:02:00,33.4,15.4,29.57,SSW,202,0.0,8.0,47,0.00,,,0.41,WeatherCatV1.11B39,2013-02-01 03:02:00,
2013-01-31 22:07:00,33.3,15.3,29.57,SSW,203,2.0,10.0,47,0.00,,,0.41,WeatherCatV1.11B39,2013-02-01 03:07:00,
2013-01-31 22:12:00,33.2,14.7,29.57,SW,215,1.0,6.0,46,0.00,,,0.41,WeatherCatV1.11B39,2013-02-01 03:12:00,
2013-01-31 22:17:00,33.0,14.5,29.58,SSW,212,0.0,7.0,46,0.00,,,0.41,WeatherCatV1.11B39,2013-02-01 03:17:00,
2013-01-31 22:22:00,32.9,14.9,29.58,South,187,1.0,6.0,47,0.00,,,0.41,WeatherCatV1.11B39,2013-02-01 03:22:00,
2013-01-31 22:27:00,32.7,15.2,29.58,SSW,203,2.0,5.0,48,0.00,,,0.41,WeatherCatV1.11B39,2013-02-01 03:27:00,
2013-01-31 22:32:00,32.5,15.5,29.59,NW,317,0.0,3.0,49,0.00,,,0.41,WeatherCatV1.11B39,2013-02-01 03:32:00,
2013-01-31 22:37:00,32.3,15.8,29.58,SW,236,0.0,2.0,50,0.00,,,0.41,WeatherCatV1.11B39,2013-02-01 03:37:00,
2013-01-31 22:42:00,32.1,15.6,29.59,SE,129,0.0,3.0,50,0.00,,,0.41,WeatherCatV1.11B39,2013-02-01 03:42:00,
2013-01-31 22:47:00,31.8,16.2,29.59,WNW,294,1.0,9.0,52,0.00,,,0.41,WeatherCatV1.11B39,2013-02-01 03:47:00,
2013-01-31 22:52:00,31.8,16.6,29.59,SW,214,5.0,5.0,53,0.00,,,0.41,WeatherCatV1.11B39,2013-02-01 03:52:00,
2013-01-31 22:57:00,31.5,17.2,29.59,WSW,244,5.0,6.0,55,0.00,,,0.41,WeatherCatV1.11B39,2013-02-01 03:57:00,
2013-01-31 23:02:00,31.3,17.0,29.59,North,6,0.0,3.0,55,0.00,,,0.41,WeatherCatV1.11B39,2013-02-01 04:02:00,
2013-01-31 23:07:00,31.0,17.6,29.60,WSW,240,2.0,2.0,57,0.00,,,0.41,WeatherCatV1.11B39,2013-02-01 04:07:00,
2013-01-31 23:12:00,30.7,18.1,29.60,NNW,346,2.0,3.0,59,0.00,,,0.41,WeatherCatV1.11B39,2013-02-01 04:12:00,
2013-01-31 23:17:00,30.5,18.3,29.60,North,356,0.0,2.0,60,0.00,,,0.41,WeatherCatV1.11B39,2013-02-01 04:17:00,
2013-01-31 23:22:00,30.3,18.1,29.60,West,262,0.0,1.0,60,0.00,,,0.41,WeatherCatV1.11B39,2013-02-01 04:22:00,
2013-01-31 23:27:00,30.1,17.9,29.60,North,352,3.0,3.0,60,0.00,,,0.41,WeatherCatV1.11B39,2013-02-01 04:27:00,
2013-01-31 23:32:00,30.1,17.5,29.60,NNW,333,3.0,5.0,59,0.00,,,0.41,WeatherCatV1.11B39,2013-02-01 04:32:00,
2013-01-31 23:37:00,30.1,17.5,29.60,North,354,0.0,4.0,59,0.00,,,0.41,WeatherCatV1.11B39,2013-02-01 04:37:00,
2013-01-31 23:42:00,30.0,17.8,29.61,WNW,298,1.0,3.0,60,0.00,,,0.41,WeatherCatV1.11B39,2013-02-01 04:42:00,
2013-01-31 23:47:00,30.0,17.8,29.61,NNE,33,1.0,2.0,60,0.00,,,0.41,WeatherCatV1.11B39,2013-02-01 04:47:00,
2013-01-31 23:52:00,30.0,17.8,29.61,WSW,238,2.0,3.0,60,0.00,,,0.41,WeatherCatV1.11B39,2013-02-01 04:52:00,
2013-01-31 23:57:00,29.9,17.7,29.61,SSW,208,2.0,2.0,60,0.00,,,0.41,WeatherCatV1.11B39,2013-02-01 04:57:00,